SCP
0 0 0 0 0 -0 0 0 0 0 0 0 0 0 0 0 0 0 0 0 0 0 0 0 0 0 0 0 0 0 0 0 0 -0 0 0 0 0 0 0 0 0 0 0
0 0 0 0 0 0 0 0 0 0 0 0 0 0 0 0 0 0 0 0 0 0 0 0 0 0 0 -0 0 0 0 0 0 0 0 0 0 0 0 0 0 0 0 0
0 0 0 0 0 0 0 0 0 0 0 0 0 0 0 0 0 0 0 0 0 0 0 0 0 0 0 0 0 0 0 0 0 0 0 0 0 0 0 0 0 -0 0 0
0 0 0 0 0 0 0 0 0 0 0 0 0 0 0 0 0 0 0 0 0 0 0 -0 -0 0 0 0 0 -0 0 0 0 0 0 0 0 0 0 0 -0 -0 -0 -0
0 0 0 0 0 0 0 0 0 0 0 0 0 0 0 0 0 0 0 0 -0 0 0 0 -0 0 0 0 0 0 -0 0 0 -0 0 0 -0 0 0 -0 -0 -0 -0 -0
0 0 0 0 0 0 0 0 0 0 0 0 0 0 0 0 0 0 0 -0 -0 -0 -0 0 0 0 -0 -0 0 0 0 0 -0 -0 -0 -0 0 -0 -0 -0 -0 -0 -0 0
0 0 0 0 0 0 0 0 0 0 0 0 0 0 0 0 0 0 -0 -0 -0 0 -0 -0 0 0 0 -0 -0 0 0 -0 -0 -0 -0 -0 -0 0 -0 -0 -0 -0 -0 0
0 0 0 0 0 0 0 0 0 0 0 0 0 0 0 0 0 0 -0 -0 0 0 0 0 0 0 0 0 0 0 -0 0 0 0 0 0 0 0 0 -0 -0 -0 0 0
0 0 0 0 0 0 0 0 0 0 0 0 0 0 0 0 0 0 0 -0 0 0 0 0 0 0 0 0 0 0 0 0 0 0 0 0 -0 -0 -0 -0 0 -0 0 0
0 0 0 0 0 -0 0 0 0 0 0 0 0 0 0 0 0 0 -0 -0 0 0 0 0 0 0 0 0 0 0 0 0 -0 -0 0 0 0 0 -0 -0 0 0 0 0
0 0 0 0 0 -0 0 0 0 0 0 0 0 0 0 0 0 0 -0 -0 0 0 -0 0 0 0 0 0 0 0 0 0 0 0 0 0 0 0 0 0 0 0 0 0
0 0 0 0 0 0 0 0 0 0 0 0 0 -0 -0 -0 -0 0 0 0 0 0 0 0 0 0 0 0 0 0 0 0 0 0 0 0 -0 -0 -0 0 0 0 0 0
0 0 0 0 0 0 0 0 0 0 0 0 0 0 0 0 -0 -0 0 0 0 0 0 0 0 0 0 0 0 0 0 0 0 0 0 0 -0 0 0 0 0 0 0 0
0 0 0 0 0 0 0 0 0 0 0 0 0 0 0 0 0 -0 -0 0 0 0 0 0 0 0 0 0 0 0 0 0 0 0 0 0 -0 -0 0 0 0 0 0 0
0 0 0 0 0 0 0 0 0 0 0 0 0 -0 0 0 0 -0 -0 -0 -0 0 0 0 0 0 0 0 0 0 0 0 0 0 0 -0 0 0 0 0 0 0 0 0
0 0 0 0 0 0 0 0 0 0 0 0 0 0 0 0 0 0 -0 0 0 0 0 0 0 0 0 0 -0 0 0 -0 0 0 0 -0 -0 0 0 0 0 0 0 0
0 0 0 0 0 0 0 0 0 0 0 0 0 0 0 0 0 0 0 0 0 0 0 -0 -0 -0 0 0 -0 -0 0 -0 0 0 0 0 -0 0 0 0 0 0 0 0
0 0 0 0 0 0 0 0 0 0 0 0 0 0 0 0 0 0 0 0 0 0 0 0 -0 -0 -0 0 0 0 0 -0 0 0 -0 0 -0 0 0 0 0 0 0 0
0 0 0 0 0 0 0 -0 0 0 0 0 0 0 0 -0 0 0 0 0 0 0 0 0 -0 -0 -0 -0 0 0 -0 0 -0 0 0 0 -0 0 0 0 0 0 0 0
0 0 0 0 0 0 0 0 0 0 0 0 0 0 0 -0 -0 0 0 0 0 0 0 0 -0 0 0 0 -0 -0 -0 -0 0 -0 -0 -0 0 0 0 0 0 0 0 0
0 0 0 0 0 0 0 0 0 0 0 0 0 0 0 0 0 0 0 0 0 0 0 -0 0 -0 -0 0 0 -0 -0 0 0 0 0 -0 0 -0 0 0 -0 0 0 0
0 0 0 0 0 0 0 0 0 0 0 0 0 0 0 0 0 0 0 0 0 0 0 0 -0 0 0 0 -0 0 0 0 0 0 0 -0 -0 0 0 0 -0 0 0 0
0 0 0 0 0 0 0 0 0 0 0 0 0 0 0 0 0 0 0 0 0 0 -0 0 0 0 0 0 0 -0 -0 0 0 0 0 0 -0 -0 0 0 0 0 0 0
0 0 0 0 0 0 0 0 0 0 0 0 0 0 0 -0 0 0 0 0 0 -0 -0 -0 0 0 -0 0 0 -0 -0 -0 0 -0 -0 -0 -0 -0 -0 0 0 0 0 0
0 0 0 0 0 0 0 0 0 0 0 0 0 0 0 0 0 0 0 0 0 -0 -0 -0 -0 0 -0 -0 -0 -0 -0 -0 -0 0 -0 -0 -0 -0 -0 0 0 0 0 0
0 0 0 0 0 0 0 0 0 0 0 0 0 0 0 0 0 0 0 0 0 0 0 0 0 -0 -0 -0 -0 0 0 0 0 -0 -0 -0 -0 -0 -0 0 0 0 0 0
0 0 0 0 0 0 0 0 0 0 0 0 0 0 0 0 0 0 0 0 0 0 0 0 0 0 -0 -0 -0 0 0 0 0 0 -0 0 -0 -0 -0 0 0 0 0 0
Wind_Speed_500mb
64 66 64 59 60 63 56 16 2 10 20 3 3 3 11 16 15 4 12 15 21 19 14 15 14 15 12 22 12 19 4 5 11 19 13 10 9 10 20 17 36 20 16 11
64 64 64 58 50 56 57 23 10 9 17 3 5 8 12 12 10 10 6 8 8 11 12 13 15 18 12 27 12 8 3 3 10 13 5 7 7 9 13 10 8 27 23 12
61 60 62 59 44 41 40 15 7 8 11 5 4 11 11 10 14 23 9 18 20 9 15 19 15 22 17 16 21 21 6 11 19 18 13 12 22 22 23 12 18 27 33 46
57 59 59 57 46 33 24 13 4 4 7 4 17 7 10 18 11 7 17 7 12 13 13 36 38 27 25 27 16 17 4 18 24 26 30 27 31 39 37 31 29 20 25 48
60 59 55 47 39 34 16 13 9 7 14 19 13 7 6 15 12 12 20 12 27 31 31 36 51 44 32 29 13 22 11 10 21 29 30 31 42 40 40 39 37 34 36 61
65 60 51 41 27 29 10 17 12 7 10 6 6 6 7 18 35 24 23 31 34 36 40 46 59 64 64 41 14 19 13 8 12 23 21 24 31 46 47 41 35 34 40 52
64 57 42 36 20 23 20 22 21 5 8 7 12 19 32 32 29 31 56 50 32 27 67 76 54 40 40 37 29 32 10 24 13 9 9 19 16 6 7 20 27 32 42 51
62 46 38 29 23 15 25 23 21 7 8 14 27 22 25 37 35 31 32 35 31 52 32 12 18 5 6 2 6 16 26 13 7 8 11 28 41 6 2 10 29 21 43 48
52 46 38 31 28 16 26 25 27 22 10 8 18 28 23 13 18 18 14 32 34 14 6 6 9 7 9 8 5 1 17 15 12 9 9 11 4 14 2 6 24 24 37 38
50 40 30 34 21 19 23 31 26 28 17 32 18 11 12 13 10 12 25 22 11 8 10 8 6 7 12 9 13 7 7 7 22 21 15 14 3 9 3 7 4 19 8 28
50 42 33 34 30 15 19 29 30 34 25 54 51 42 22 19 14 8 19 20 2 6 10 7 7 6 7 8 8 9 4 4 7 12 11 17 12 9 13 6 18 22 32 24
49 42 35 32 35 23 19 30 27 26 45 52 77 84 73 74 66 34 12 12 13 5 5 3 5 6 6 11 8 4 5 4 6 5 5 23 43 38 50 48 40 42 41 28
47 43 40 33 32 25 18 33 35 36 36 56 29 13 5 8 5 26 19 13 9 4 7 4 4 8 4 7 7 5 7 11 4 7 5 26 49 28 36 42 40 36 6 7
43 42 39 34 31 31 28 34 34 32 19 11 17 17 45 29 31 36 40 42 13 15 15 7 5 7 10 5 11 5 8 18 16 9 8 29 53 61 49 30 28 26 30 23
45 43 39 34 31 31 33 37 40 34 30 10 26 53 5 12 8 18 31 46 54 24 7 6 5 6 5 7 6 6 12 9 9 8 25 21 30 40 41 44 40 36 34 34
46 46 42 38 32 26 19 11 2 7 31 9 8 17 10 12 14 10 24 34 34 21 8 7 9 9 5 6 5 11 21 15 23 18 17 26 32 32 36 36 27 37 42 41
47 47 44 36 30 25 17 9 9 14 18 8 10 10 8 17 6 5 11 20 18 16 7 8 7 7 5 4 5 21 19 19 28 30 22 17 31 24 33 31 38 32 46 50
45 45 34 22 17 22 23 6 23 23 18 9 6 8 12 5 4 5 11 11 16 13 7 5 6 6 5 6 6 10 10 13 26 24 23 23 24 28 35 38 32 38 42 42
45 34 14 10 6 4 1 12 14 33 15 8 6 5 6 11 5 4 5 8 5 7 5 4 3 3 7 5 4 9 14 10 12 21 28 28 28 31 37 40 35 34 36 31
35 18 2 4 4 11 13 8 7 26 12 14 8 9 8 6 5 4 3 3 2 4 5 3 6 6 8 10 8 6 9 14 12 17 24 21 24 29 33 37 33 30 26 26
34 21 7 10 12 12 7 8 9 14 7 11 10 17 10 8 7 5 3 3 2 4 4 5 3 5 4 17 13 4 17 18 16 17 16 18 20 25 28 29 31 31 29 28
41 28 29 14 5 8 7 7 6 9 7 8 8 10 15 8 12 6 4 4 2 6 3 4 5 4 6 18 15 8 26 20 18 18 17 19 23 29 34 37 38 38 34 30
13 5 6 6 5 4 10 9 7 6 6 4 8 8 7 9 6 7 4 5 6 6 3 4 6 2 11 20 18 24 27 21 21 21 21 21 23 29 32 39 44 41 40 34
5 5 9 8 8 10 7 5 4 7 5 17 19 11 9 9 8 6 5 1 2 2 4 7 4 11 21 25 24 28 28 22 23 21 19 20 24 28 31 33 37 42 45 41
7 7 10 10 10 13 15 14 10 11 18 19 17 10 8 3 4 2 3 4 5 6 6 5 3 7 30 31 29 25 31 27 26 24 18 18 21 25 29 31 36 42 45 45
7 10 9 13 16 15 7 11 11 19 22 23 7 7 4 7 4 6 9 5 7 4 5 17 18 4 26 33 35 31 26 30 30 27 22 19 18 22 27 29 33 38 41 46
6 9 10 16 20 22 19 26 33 29 14 5 7 7 8 3 4 5 6 5 1 13 19 22 14 12 12 26 30 27 25 25 32 31 24 21 19 20 20 25 27 31 36 40
Wind_Direction_500mb
353 355 353 353 350 349 357 357 279 352 348 339 35 287 312 303 290 283 284 272 267 269 297 291 290 260 267 329 331 309 283 291 284 284 285 294 281 289 255 241 221 241 286 276
349 350 351 351 354 351 350 345 310 336 354 13 334 315 292 271 282 288 294 281 279 305 292 294 256 269 269 296 270 280 359 249 304 298 175 106 231 232 266 267 274 251 235 243
346 348 349 349 355 352 350 351 329 348 52 56 357 323 294 308 289 281 266 293 285 262 273 263 278 272 294 275 277 271 266 243 248 260 302 314 296 288 276 259 256 245 238 265
344 347 345 347 349 359 359 359 12 335 314 340 312 290 278 295 304 326 305 265 247 293 283 299 278 275 277 271 264 242 250 242 235 252 268 272 270 273 271 253 244 254 261 257
340 338 339 345 349 357 356 2 344 322 283 294 294 283 261 291 317 320 297 260 282 287 281 277 287 290 274 259 245 237 203 253 225 247 257 261 270 261 255 254 252 247 253 264
337 332 337 345 345 345 344 335 312 290 279 291 293 280 304 307 316 292 243 285 288 288 289 299 290 278 274 253 223 199 194 211 220 254 259 272 272 253 245 245 240 239 241 255
330 332 338 354 337 332 316 321 321 268 280 245 287 292 296 294 299 274 288 291 288 292 310 302 289 270 254 257 248 215 198 207 227 262 246 255 262 171 276 243 250 244 240 246
333 337 340 352 337 302 307 298 290 257 273 283 292 312 312 306 298 277 278 299 300 309 309 312 321 335 253 247 217 206 209 182 212 223 224 282 291 292 332 276 268 238 227 237
339 344 347 346 333 298 296 291 281 257 276 248 287 307 309 310 322 307 275 317 321 327 311 335 330 323 308 323 333 261 206 196 207 197 236 250 142 163 53 335 275 234 229 231
333 329 344 334 329 330 284 290 285 263 259 280 265 270 305 285 294 288 295 330 324 349 357 346 328 304 318 308 317 330 146 196 216 218 241 273 153 77 306 247 11 336 291 240
327 325 323 322 325 303 301 288 287 275 272 284 272 273 237 265 241 260 318 325 80 295 10 351 342 292 314 297 275 296 274 258 204 223 238 257 52 327 219 318 315 317 309 272
322 323 318 314 320 314 273 288 295 285 263 269 282 287 281 265 254 254 272 275 308 318 307 331 314 290 288 291 301 87 323 249 300 257 271 304 285 243 252 267 293 291 301 285
321 321 317 312 307 302 275 279 287 294 289 293 287 307 300 318 268 223 221 246 241 236 258 287 286 277 278 305 302 305 234 233 237 295 257 303 341 24 225 246 252 277 18 70
322 320 317 314 309 300 277 265 270 276 272 281 283 297 303 290 257 232 255 243 249 300 303 230 258 263 200 280 288 325 272 312 313 312 303 333 8 8 27 47 60 55 63 67
327 325 320 315 310 302 292 285 282 260 228 284 294 314 341 337 307 255 240 240 246 276 277 237 246 250 281 259 281 327 2 320 346 335 348 3 346 10 5 21 30 40 59 66
326 321 315 307 300 295 310 315 316 256 208 269 293 309 307 322 335 248 228 232 237 232 266 251 264 262 254 301 289 355 8 14 21 347 3 18 359 16 7 15 23 46 57 66
326 320 315 305 291 263 227 239 269 315 191 246 278 283 274 309 308 185 192 202 219 230 247 237 253 278 223 266 288 352 12 26 30 22 28 20 29 9 3 17 26 49 60 66
328 325 319 318 298 252 260 278 255 234 200 243 269 276 303 319 270 192 186 199 213 230 257 246 244 265 228 259 289 336 31 37 47 51 57 60 41 30 18 15 31 47 49 57
331 326 325 301 323 212 307 280 292 231 210 271 237 278 301 332 265 255 202 211 228 209 254 240 219 220 228 233 164 65 40 69 76 45 47 50 46 38 29 29 30 40 46 47
341 336 341 229 234 294 290 259 205 193 232 234 248 231 264 314 324 293 260 202 279 246 220 250 230 266 257 206 179 106 83 120 87 42 38 37 37 37 36 33 34 42 42 47
359 345 299 281 273 289 226 240 219 202 238 224 233 224 244 253 225 276 246 321 221 264 130 271 252 260 219 176 173 149 132 117 79 65 33 55 52 43 50 49 51 51 56 57
325 304 296 304 271 241 238 211 226 204 243 204 196 237 220 239 218 239 217 260 249 255 355 251 260 254 175 166 157 147 148 122 96 72 69 57 60 52 51 52 56 59 68 73
331 305 272 246 219 258 230 215 202 213 190 69 312 295 261 185 204 246 238 225 244 309 253 248 242 233 186 170 153 147 149 136 119 99 90 82 71 63 60 55 57 61 65 71
295 279 265 216 219 234 244 291 353 56 335 320 314 284 215 215 161 195 226 102 264 294 269 245 190 192 191 175 163 157 162 150 137 119 104 89 83 74 70 66 65 66 68 70
260 210 239 241 272 287 297 315 321 341 325 329 310 261 246 200 213 129 119 189 245 233 247 260 8 141 173 175 173 166 172 169 158 144 123 106 92 86 81 71 67 67 68 70
242 242 270 296 292 308 9 324 317 330 326 315 248 261 246 227 187 184 213 192 230 260 238 298 320 8 171 176 174 171 174 180 173 158 147 127 100 85 80 76 73 71 70 69
262 268 278 283 290 282 310 323 323 332 335 298 294 245 225 92 224 226 197 220 285 332 331 334 333 323 204 182 181 173 175 173 177 175 165 151 131 97 82 82 79 73 71 70
Wind_Speed_850mb
64 66 64 59 60 63 56 16 2 10 20 3 3 3 11 16 15 4 12 15 21 19 14 15 14 15 12 22 12 19 4 5 11 19 13 10 9 10 20 17 36 20 16 11
64 64 64 58 50 56 57 23 10 9 17 3 5 8 12 12 10 10 6 8 8 11 12 13 15 18 12 27 12 8 3 3 10 13 5 7 7 9 13 10 8 27 23 12
61 60 62 59 44 41 40 15 7 8 11 5 4 11 11 10 14 23 9 18 20 9 15 19 15 22 17 16 21 21 6 11 19 18 13 12 22 22 23 12 18 27 33 46
57 59 59 57 46 33 24 13 4 4 7 4 17 7 10 18 11 7 17 7 12 13 13 36 38 27 25 27 16 17 4 18 24 26 30 27 31 39 37 31 29 20 25 48
60 59 55 47 39 34 16 13 9 7 14 19 13 7 6 15 12 12 20 12 27 31 31 36 51 44 32 29 13 22 11 10 21 29 30 31 42 40 40 39 37 34 36 61
65 60 51 41 27 29 10 17 12 7 10 6 6 6 7 18 35 24 23 31 34 36 40 46 59 64 64 41 14 19 13 8 12 23 21 24 31 46 47 41 35 34 40 52
64 57 42 36 20 23 20 22 21 5 8 7 12 19 32 32 29 31 56 50 32 27 67 76 54 40 40 37 29 32 10 24 13 9 9 19 16 6 7 20 27 32 42 51
62 46 38 29 23 15 25 23 21 7 8 14 27 22 25 37 35 31 32 35 31 52 32 12 18 5 6 2 6 16 26 13 7 8 11 28 41 6 2 10 29 21 43 48
52 46 38 31 28 16 26 25 27 22 10 8 18 28 23 13 18 18 14 32 34 14 6 6 9 7 9 8 5 1 17 15 12 9 9 11 4 14 2 6 24 24 37 38
50 40 30 34 21 19 23 31 26 28 17 32 18 11 12 13 10 12 25 22 11 8 10 8 6 7 12 9 13 7 7 7 22 21 15 14 3 9 3 7 4 19 8 28
50 42 33 34 30 15 19 29 30 34 25 54 51 42 22 19 14 8 19 20 2 6 10 7 7 6 7 8 8 9 4 4 7 12 11 17 12 9 13 6 18 22 32 24
49 42 35 32 35 23 19 30 27 26 45 52 77 84 73 74 66 34 12 12 13 5 5 3 5 6 6 11 8 4 5 4 6 5 5 23 43 38 50 48 40 42 41 28
47 43 40 33 32 25 18 33 35 36 36 56 29 13 5 8 5 26 19 13 9 4 7 4 4 8 4 7 7 5 7 11 4 7 5 26 49 28 36 42 40 36 6 7
43 42 39 34 31 31 28 34 34 32 19 11 17 17 45 29 31 36 40 42 13 15 15 7 5 7 10 5 11 5 8 18 16 9 8 29 53 61 49 30 28 26 30 23
45 43 39 34 31 31 33 37 40 34 30 10 26 53 5 12 8 18 31 46 54 24 7 6 5 6 5 7 6 6 12 9 9 8 25 21 30 40 41 44 40 36 34 34
46 46 42 38 32 26 19 11 2 7 31 9 8 17 10 12 14 10 24 34 34 21 8 7 9 9 5 6 5 11 21 15 23 18 17 26 32 32 36 36 27 37 42 41
47 47 44 36 30 25 17 9 9 14 18 8 10 10 8 17 6 5 11 20 18 16 7 8 7 7 5 4 5 21 19 19 28 30 22 17 31 24 33 31 38 32 46 50
45 45 34 22 17 22 23 6 23 23 18 9 6 8 12 5 4 5 11 11 16 13 7 5 6 6 5 6 6 10 10 13 26 24 23 23 24 28 35 38 32 38 42 42
45 34 14 10 6 4 1 12 14 33 15 8 6 5 6 11 5 4 5 8 5 7 5 4 3 3 7 5 4 9 14 10 12 21 28 28 28 31 37 40 35 34 36 31
35 18 2 4 4 11 13 8 7 26 12 14 8 9 8 6 5 4 3 3 2 4 5 3 6 6 8 10 8 6 9 14 12 17 24 21 24 29 33 37 33 30 26 26
34 21 7 10 12 12 7 8 9 14 7 11 10 17 10 8 7 5 3 3 2 4 4 5 3 5 4 17 13 4 17 18 16 17 16 18 20 25 28 29 31 31 29 28
41 28 29 14 5 8 7 7 6 9 7 8 8 10 15 8 12 6 4 4 2 6 3 4 5 4 6 18 15 8 26 20 18 18 17 19 23 29 34 37 38 38 34 30
13 5 6 6 5 4 10 9 7 6 6 4 8 8 7 9 6 7 4 5 6 6 3 4 6 2 11 20 18 24 27 21 21 21 21 21 23 29 32 39 44 41 40 34
5 5 9 8 8 10 7 5 4 7 5 17 19 11 9 9 8 6 5 1 2 2 4 7 4 11 21 25 24 28 28 22 23 21 19 20 24 28 31 33 37 42 45 41
7 7 10 10 10 13 15 14 10 11 18 19 17 10 8 3 4 2 3 4 5 6 6 5 3 7 30 31 29 25 31 27 26 24 18 18 21 25 29 31 36 42 45 45
7 10 9 13 16 15 7 11 11 19 22 23 7 7 4 7 4 6 9 5 7 4 5 17 18 4 26 33 35 31 26 30 30 27 22 19 18 22 27 29 33 38 41 46
6 9 10 16 20 22 19 26 33 29 14 5 7 7 8 3 4 5 6 5 1 13 19 22 14 12 12 26 30 27 25 25 32 31 24 21 19 20 20 25 27 31 36 40
Wind_Direction_850mb
353 355 353 353 350 349 357 357 279 352 348 339 35 287 312 303 290 283 284 272 267 269 297 291 290 260 267 329 331 309 283 291 284 284 285 294 281 289 255 241 221 241 286 276
349 350 351 351 354 351 350 345 310 336 354 13 334 315 292 271 282 288 294 281 279 305 292 294 256 269 269 296 270 280 359 249 304 298 175 106 231 232 266 267 274 251 235 243
346 348 349 349 355 352 350 351 329 348 52 56 357 323 294 308 289 281 266 293 285 262 273 263 278 272 294 275 277 271 266 243 248 260 302 314 296 288 276 259 256 245 238 265
344 347 345 347 349 359 359 359 12 335 314 340 312 290 278 295 304 326 305 265 247 293 283 299 278 275 277 271 264 242 250 242 235 252 268 272 270 273 271 253 244 254 261 257
340 338 339 345 349 357 356 2 344 322 283 294 294 283 261 291 317 320 297 260 282 287 281 277 287 290 274 259 245 237 203 253 225 247 257 261 270 261 255 254 252 247 253 264
337 332 337 345 345 345 344 335 312 290 279 291 293 280 304 307 316 292 243 285 288 288 289 299 290 278 274 253 223 199 194 211 220 254 259 272 272 253 245 245 240 239 241 255
330 332 338 354 337 332 316 321 321 268 280 245 287 292 296 294 299 274 288 291 288 292 310 302 289 270 254 257 248 215 198 207 227 262 246 255 262 171 276 243 250 244 240 246
333 337 340 352 337 302 307 298 290 257 273 283 292 312 312 306 298 277 278 299 300 309 309 312 321 335 253 247 217 206 209 182 212 223 224 282 291 292 332 276 268 238 227 237
339 344 347 346 333 298 296 291 281 257 276 248 287 307 309 310 322 307 275 317 321 327 311 335 330 323 308 323 333 261 206 196 207 197 236 250 142 163 53 335 275 234 229 231
333 329 344 334 329 330 284 290 285 263 259 280 265 270 305 285 294 288 295 330 324 349 357 346 328 304 318 308 317 330 146 196 216 218 241 273 153 77 306 247 11 336 291 240
327 325 323 322 325 303 301 288 287 275 272 284 272 273 237 265 241 260 318 325 80 295 10 351 342 292 314 297 275 296 274 258 204 223 238 257 52 327 219 318 315 317 309 272
322 323 318 314 320 314 273 288 295 285 263 269 282 287 281 265 254 254 272 275 308 318 307 331 314 290 288 291 301 87 323 249 300 257 271 304 285 243 252 267 293 291 301 285
321 321 317 312 307 302 275 279 287 294 289 293 287 307 300 318 268 223 221 246 241 236 258 287 286 277 278 305 302 305 234 233 237 295 257 303 341 24 225 246 252 277 18 70
322 320 317 314 309 300 277 265 270 276 272 281 283 297 303 290 257 232 255 243 249 300 303 230 258 263 200 280 288 325 272 312 313 312 303 333 8 8 27 47 60 55 63 67
327 325 320 315 310 302 292 285 282 260 228 284 294 314 341 337 307 255 240 240 246 276 277 237 246 250 281 259 281 327 2 320 346 335 348 3 346 10 5 21 30 40 59 66
326 321 315 307 300 295 310 315 316 256 208 269 293 309 307 322 335 248 228 232 237 232 266 251 264 262 254 301 289 355 8 14 21 347 3 18 359 16 7 15 23 46 57 66
326 320 315 305 291 263 227 239 269 315 191 246 278 283 274 309 308 185 192 202 219 230 247 237 253 278 223 266 288 352 12 26 30 22 28 20 29 9 3 17 26 49 60 66
328 325 319 318 298 252 260 278 255 234 200 243 269 276 303 319 270 192 186 199 213 230 257 246 244 265 228 259 289 336 31 37 47 51 57 60 41 30 18 15 31 47 49 57
331 326 325 301 323 212 307 280 292 231 210 271 237 278 301 332 265 255 202 211 228 209 254 240 219 220 228 233 164 65 40 69 76 45 47 50 46 38 29 29 30 40 46 47
341 336 341 229 234 294 290 259 205 193 232 234 248 231 264 314 324 293 260 202 279 246 220 250 230 266 257 206 179 106 83 120 87 42 38 37 37 37 36 33 34 42 42 47
359 345 299 281 273 289 226 240 219 202 238 224 233 224 244 253 225 276 246 321 221 264 130 271 252 260 219 176 173 149 132 117 79 65 33 55 52 43 50 49 51 51 56 57
325 304 296 304 271 241 238 211 226 204 243 204 196 237 220 239 218 239 217 260 249 255 355 251 260 254 175 166 157 147 148 122 96 72 69 57 60 52 51 52 56 59 68 73
331 305 272 246 219 258 230 215 202 213 190 69 312 295 261 185 204 246 238 225 244 309 253 248 242 233 186 170 153 147 149 136 119 99 90 82 71 63 60 55 57 61 65 71
295 279 265 216 219 234 244 291 353 56 335 320 314 284 215 215 161 195 226 102 264 294 269 245 190 192 191 175 163 157 162 150 137 119 104 89 83 74 70 66 65 66 68 70
260 210 239 241 272 287 297 315 321 341 325 329 310 261 246 200 213 129 119 189 245 233 247 260 8 141 173 175 173 166 172 169 158 144 123 106 92 86 81 71 67 67 68 70
242 242 270 296 292 308 9 324 317 330 326 315 248 261 246 227 187 184 213 192 230 260 238 298 320 8 171 176 174 171 174 180 173 158 147 127 100 85 80 76 73 71 70 69
262 268 278 283 290 282 310 323 323 332 335 298 294 245 225 92 224 226 197 220 285 332 331 334 333 323 204 182 181 173 175 173 177 175 165 151 131 97 82 82 79 73 71 70